Dewpoint
-6 -6 -5 -4 -5 -7 -3 -0 3 8 10 11 11 11 11 11 11 10 10 10 9 8 6 6 7 7 9 10 11 11 11 10
-5 -6 -5 -4 -4 -7 -3 -0 3 7 10 12 11 11 11 11 11 11 10 10 9 8 7 7 6 7 9 10 11 11 11 11
-4 -5 -5 -5 -4 -6 -4 1 4 7 10 12 11 11 10 11 11 11 11 10 9 8 8 7 8 8 9 10 11 10 11 11
-4 -4 -5 -4 -4 -4 -4 -1 3 6 9 11 10 10 9 10 11 12 11 10 11 10 8 8 8 8 9 11 11 10 11 11
-3 -4 -4 -4 -4 -3 -3 -3 -1 4 7 9 9 9 9 9 11 12 12 12 12 10 10 9 8 8 8 10 10 10 10 9
-3 -3 -4 -4 -3 -3 -4 -4 -2 1 5 7 8 8 9 10 11 12 12 12 11 10 10 8 8 8 8 10 10 10 9 9
-1 -2 -2 -3 -3 -2 -3 -4 -3 -1 2 5 6 8 8 9 11 12 12 12 11 11 10 9 8 7 8 9 10 10 10 9
3 2 -0 -2 -2 -2 -2 -3 -3 -1 1 2 5 7 8 8 10 11 12 12 11 11 10 9 8 8 8 8 10 10 10 9
7 4 2 1 0 -1 -1 -1 -2 -1 -0 1 3 5 8 9 9 9 10 11 12 11 11 10 9 8 8 8 8 9 10 10
8 6 6 6 6 3 0 1 -0 -0 0 2 2 4 7 9 9 9 9 10 12 11 11 11 10 9 9 9 9 9 9 9
9 8 8 7 9 8 3 2 2 2 3 2 2 3 6 8 8 8 9 10 11 11 11 11 11 11 10 10 9 10 10 10
9 8 9 8 11 10 7 5 4 4 4 4 3 3 5 7 8 9 9 10 11 11 11 11 11 11 11 11 10 10 10 9
10 9 10 10 12 12 11 7 5 5 5 5 5 5 5 7 8 9 10 10 10 11 11 11 11 11 11 11 10 10 10 10
12 11 11 11 12 12 12 11 9 7 7 7 8 7 5 5 6 7 9 10 11 11 12 11 12 11 11 10 10 10 10 10
3 10 12 11 11 12 12 13 12 11 10 9 8 9 9 8 7 6 8 10 11 11 11 12 11 11 12 10 10 9 10 10
-3 -2 -1 5 10 12 13 12 11 10 10 10 10 10 10 10 9 9 7 11 13 12 11 10 10 10 9 10 10 10 10 10
9 6 1 5 13 12 15 14 11 12 11 11 10 10 10 10 10 10 9 10 13 11 10 10 10 9 8 9 9 9 10 9
11 11 11 11 12 13 13 13 13 11 13 12 10 9 8 9 11 10 10 10 11 11 11 11 10 9 9 9 10 10 10 10
8 9 11 12 12 12 13 13 13 12 12 11 6 8 8 8 9 10 11 11 11 11 11 11 11 10 9 9 9 10 10 9
5 5 7 9 11 12 12 12 13 14 13 12 11 10 9 9 9 9 11 10 10 11 11 10 10 10 9 9 9 9 10 10
Wind_Speed
29 28 25 21 19 17 17 17 18 20 21 22 21 19 17 16 15 15 16 15 14 14 13 11 11 11 12 13 14 14 14 14
30 31 27 23 20 18 17 18 19 20 21 22 21 19 17 16 16 16 17 17 15 15 11 11 11 11 12 13 14 14 14 13
31 30 27 23 20 19 19 19 19 20 21 22 21 20 19 18 18 18 18 19 15 14 14 12 10 11 13 14 14 15 17 15
34 32 28 25 21 21 20 21 21 22 23 24 22 20 19 19 18 19 21 19 14 15 19 13 12 13 14 16 15 15 17 14
37 34 31 27 24 22 21 21 21 21 23 23 22 21 20 20 20 21 22 21 18 21 19 15 13 14 15 17 15 14 16 15
39 35 31 28 25 23 22 21 21 22 23 23 23 23 22 21 22 22 23 22 21 22 20 17 14 13 15 19 19 15 17 17
39 35 32 29 27 25 23 22 21 21 22 23 23 24 23 23 23 23 23 23 22 22 21 19 16 15 16 18 20 20 19 19
40 35 32 31 30 27 24 22 21 22 22 22 23 23 23 23 24 23 23 24 22 23 21 20 17 16 16 17 19 21 22 19
41 36 34 32 31 28 27 24 23 23 23 22 23 23 23 24 23 23 23 23 23 23 24 23 20 20 18 18 20 22 23 22
44 38 33 30 31 30 30 27 25 25 24 23 23 23 24 24 24 23 23 22 24 24 25 25 24 24 22 19 21 23 24 24
48 41 35 32 31 31 30 29 28 27 26 25 24 24 25 25 25 24 23 23 25 25 25 25 25 25 25 22 23 23 24 25
50 43 38 36 36 33 33 31 30 29 27 28 26 26 26 26 26 25 25 26 27 27 27 26 25 24 25 24 23 24 25 24
51 48 43 42 41 38 36 36 33 32 30 30 29 27 27 27 27 27 27 28 28 27 26 27 27 25 24 22 23 23 27 28
46 49 47 45 43 41 39 38 36 34 33 33 31 28 27 28 28 28 28 29 30 30 30 30 30 29 25 21 15 23 22 26
39 44 43 42 44 42 42 38 36 37 37 33 32 32 30 28 28 28 29 30 31 30 30 33 33 32 30 21 8 13 21 26
24 36 37 33 36 40 42 42 42 41 40 37 35 35 30 29 30 29 30 32 34 32 30 30 30 32 28 28 28 22 13 13
17 24 30 32 30 33 36 38 40 39 38 39 36 31 31 30 31 32 31 32 35 33 32 32 33 33 34 35 32 32 27 23
16 17 25 25 26 29 31 33 35 38 38 35 34 32 31 32 33 34 34 33 33 33 34 34 34 34 36 36 38 35 38 32
12 13 18 21 23 29 30 31 32 33 36 35 27 37 37 36 33 34 33 35 35 34 34 34 34 35 35 37 38 40 40 40
13 10 10 11 16 23 29 30 33 33 34 36 37 35 35 33 32 31 32 31 33 37 36 36 33 33 34 35 38 39 40 44
Wind_Direction
182 184 185 184 177 173 182 188 191 191 191 192 192 193 193 190 186 184 183 182 178 178 178 188 185 185 182 180 181 180 180 187
187 187 185 185 180 172 180 184 187 191 192 194 196 196 196 193 190 190 186 181 178 183 194 196 190 193 189 191 184 185 188 191
193 192 186 184 184 175 176 184 185 188 192 197 199 199 199 196 193 192 192 185 184 194 197 197 204 205 204 203 195 192 186 189
197 195 190 185 187 186 181 182 186 189 193 200 203 204 205 202 196 193 191 198 210 206 192 207 213 223 213 206 204 201 193 190
200 198 194 193 189 192 189 186 187 191 195 202 206 207 207 206 201 196 202 208 215 201 203 213 224 229 218 200 205 200 200 196
203 201 199 198 198 198 197 192 190 192 197 202 207 208 208 208 205 202 202 208 208 204 214 215 224 219 209 204 206 211 208 212
207 204 205 205 205 207 205 199 198 196 199 203 208 211 211 210 210 208 209 206 209 209 214 216 220 219 214 211 215 219 226 224
212 208 210 211 213 213 214 207 205 203 202 206 210 214 216 214 214 215 214 214 210 212 216 217 222 219 222 224 222 222 229 229
217 214 214 217 219 219 217 214 211 211 210 209 212 215 217 218 218 221 221 220 216 215 216 218 223 221 226 239 238 234 235 233
222 217 218 223 224 223 219 216 218 217 216 213 213 215 216 219 221 223 225 223 220 220 220 220 224 227 231 240 244 244 246 246
224 220 221 228 226 224 222 219 219 220 219 219 216 215 216 218 221 223 225 226 223 225 225 227 231 233 236 242 242 247 254 251
227 224 226 228 226 223 220 218 221 222 223 223 220 218 218 219 221 223 224 225 224 225 227 233 236 240 244 247 248 252 256 250
228 227 228 229 226 223 221 218 219 221 221 224 223 221 220 222 224 224 224 226 227 228 230 234 239 242 245 251 254 257 250 246
227 231 230 233 232 232 229 224 223 225 222 223 223 225 224 227 228 227 226 228 228 228 231 234 238 241 238 243 249 258 254 247
226 230 234 232 234 231 232 229 226 223 224 224 226 228 228 231 233 232 231 230 232 232 233 233 237 241 240 228 216 242 235 243
213 224 226 229 234 237 234 231 229 232 230 225 223 227 231 235 238 238 236 232 233 234 238 240 242 244 245 242 245 245 210 217
187 202 207 216 217 229 227 231 236 240 235 232 229 229 235 238 241 240 239 236 235 235 237 238 242 245 247 250 247 251 243 235
164 190 200 208 211 215 225 230 233 236 235 234 236 237 241 241 241 243 242 242 239 239 239 240 243 247 251 254 255 243 241 230
130 154 176 194 204 213 218 222 230 236 236 231 232 243 237 239 240 242 242 243 242 242 247 246 246 251 253 254 256 257 254 245
89 111 139 181 210 212 216 219 225 228 232 231 236 239 241 243 244 245 245 246 243 245 243 245 248 248 253 256 259 258 256 250
Height
1472 1476 1480 1481 1480 1482 1487 1490 1493 1496 1499 1501 1504 1507 1509 1512 1514 1516 1519 1521 1523 1525 1527 1528 1530 1532 1534 1535 1537 1539 1540 1542
1470 1473 1476 1480 1480 1480 1485 1488 1491 1495 1498 1500 1503 1506 1508 1512 1514 1517 1519 1521 1523 1525 1527 1529 1530 1532 1534 1535 1537 1539 1541 1542
1470 1472 1474 1477 1480 1479 1481 1487 1489 1493 1496 1499 1502 1504 1507 1510 1513 1516 1519 1521 1524 1525 1527 1529 1530 1532 1534 1536 1537 1538 1540 1542
1467 1470 1472 1473 1478 1480 1480 1483 1487 1490 1493 1497 1500 1503 1505 1508 1512 1515 1518 1521 1524 1525 1527 1529 1530 1532 1534 1536 1537 1539 1540 1541
1464 1466 1468 1472 1473 1478 1479 1480 1483 1488 1491 1494 1498 1501 1503 1506 1510 1513 1517 1519 1521 1524 1526 1528 1529 1531 1533 1535 1537 1539 1540 1541
1460 1464 1466 1468 1472 1474 1478 1479 1481 1484 1489 1492 1495 1498 1501 1503 1507 1511 1514 1517 1519 1523 1525 1528 1529 1530 1532 1535 1536 1538 1539 1541
1457 1461 1464 1467 1468 1472 1475 1477 1479 1482 1486 1490 1492 1495 1498 1501 1504 1508 1511 1515 1518 1521 1524 1526 1528 1530 1531 1533 1535 1537 1539 1540
1455 1457 1460 1464 1465 1468 1472 1475 1478 1481 1483 1486 1490 1493 1496 1499 1502 1505 1509 1512 1516 1519 1522 1525 1527 1528 1530 1532 1533 1535 1537 1539
1453 1454 1456 1460 1463 1465 1468 1472 1476 1478 1480 1483 1486 1490 1494 1497 1500 1503 1506 1510 1514 1517 1519 1522 1525 1527 1528 1529 1531 1533 1534 1537
1447 1449 1452 1454 1458 1461 1463 1468 1472 1475 1478 1481 1484 1487 1490 1495 1498 1500 1503 1507 1511 1514 1516 1519 1521 1523 1526 1527 1528 1529 1531 1533
1436 1442 1445 1449 1453 1457 1460 1463 1467 1472 1476 1478 1480 1483 1486 1490 1493 1497 1501 1504 1507 1510 1513 1515 1518 1520 1522 1524 1525 1526 1527 1529
1429 1434 1440 1444 1448 1453 1455 1459 1462 1466 1472 1475 1478 1480 1483 1486 1489 1493 1497 1500 1503 1505 1509 1512 1514 1517 1519 1520 1521 1523 1523 1525
1421 1427 1433 1438 1441 1445 1449 1451 1454 1460 1464 1470 1474 1476 1480 1482 1485 1489 1492 1495 1498 1502 1505 1508 1510 1512 1515 1516 1517 1518 1518 1520
1413 1419 1425 1431 1436 1439 1444 1447 1451 1454 1459 1463 1469 1473 1476 1478 1481 1484 1487 1491 1493 1496 1500 1503 1506 1508 1510 1513 1512 1514 1513 1515
1406 1413 1419 1425 1429 1431 1438 1442 1446 1450 1453 1458 1463 1467 1471 1474 1477 1480 1482 1486 1488 1491 1494 1497 1500 1503 1505 1509 1508 1508 1509 1511
1400 1406 1412 1418 1422 1425 1430 1434 1437 1441 1446 1451 1455 1460 1466 1469 1473 1475 1477 1480 1482 1485 1489 1492 1496 1497 1500 1501 1503 1505 1504 1506
1398 1402 1405 1409 1416 1421 1425 1429 1433 1437 1442 1446 1450 1456 1460 1463 1466 1469 1471 1474 1477 1479 1483 1486 1488 1491 1493 1494 1497 1499 1501 1499
1397 1403 1402 1405 1411 1416 1420 1423 1427 1431 1435 1440 1445 1450 1453 1456 1459 1462 1465 1468 1470 1473 1476 1479 1482 1484 1486 1488 1489 1491 1492 1494
1398 1401 1401 1404 1407 1412 1415 1418 1422 1424 1429 1433 1437 1441 1444 1447 1452 1454 1457 1461 1464 1467 1469 1471 1474 1476 1479 1481 1482 1483 1485 1485
1399 1399 1397 1400 1405 1408 1411 1413 1416 1418 1422 1426 1429 1433 1437 1442 1445 1448 1451 1454 1457 1460 1462 1464 1467 1469 1471 1473 1475 1474 1476 1477